N5CSU Weather Reports


time (UTC)temp
F
wind
direction
speed
knots
gust
knots
rain 1hr
in
rain 24hr
in
rain mn
in
humidity
%
barometer
mb
20260509201034 85 97 0.9 1.7 0.00 0.00 0.00 62 1009.4
20260509200527 85 190 0.0 0.0 0.00 0.00 0.00 60 1009.4
20260509200024 85 184 0.0 0.0 0.00 0.00 0.00 62 1009.4
20260509195519 86 36 0.9 0.9 0.00 0.00 0.00 59 1009.5
20260509195014 86 199 1.7 1.7 0.00 0.00 0.00 60 1009.4
20260509194509 86 189 0.0 0.0 0.00 0.00 0.00 60 1009.5
20260509194006 86 197 0.0 0.0 0.00 0.00 0.00 61 1009.6
20260509193501 86 56 0.0 0.9 0.00 0.00 0.00 60 1009.6
20260509192957 86 138 0.0 0.9 0.00 0.00 0.00 61 1009.5
20260509192454 86 172 0.0 0.0 0.00 0.00 0.00 63 1009.7
20260509191949 85 182 0.0 0.0 0.00 0.00 0.00 61 1009.6
20260509191444 85 188 0.0 0.0 0.00 0.00 0.00 64 1009.7
20260509190940 85 225 0.0 0.0 0.00 0.00 0.00 64 1009.9
20260509190438 86 192 0.0 0.0 0.00 0.00 0.00 63 1009.8
20260509185936 85 184 0.0 0.0 0.00 0.00 0.00 64 1010.0
20260509185433 85 182 0.0 0.0 0.00 0.00 0.00 65 1009.9
20260509184929 84 199 0.0 0.0 0.00 0.00 0.00 65 1009.9
20260509184427 84 182 0.0 0.0 0.00 0.00 0.00 64 1010.0
20260509183923 84 212 0.0 0.9 0.00 0.00 0.00 65 1009.9
20260509183422 84 200 0.0 0.0 0.00 0.00 0.00 66 1009.9
20260509182920 84 205 0.0 0.0 0.00 0.00 0.00 65 1009.8
20260509182416 84 190 0.0 0.0 0.00 0.00 0.00 65 1009.7
20260509181914 84 199 0.0 0.0 0.00 0.00 0.00 66 1010.3
20260509181411 84 172 0.0 0.0 0.00 0.00 0.00 66 1010.2
20260509180908 84 202 0.0 0.0 0.00 0.00 0.00 67 1010.3
20260509180403 84 170 0.0 0.0 0.00 0.00 0.00 67 1010.1
20260509175901 83 169 0.0 0.0 0.00 0.00 0.00 68 1010.3
20260509175357 83 184 0.9 0.9 0.00 0.00 0.00 66 1010.5
20260509174853 83 203 0.0 0.0 0.00 0.00 0.00 69 1010.5
20260509174344 82 183 0.0 0.0 0.00 0.00 0.00 70 1010.6
20260509173840 82 204 0.0 0.0 0.00 0.00 0.00 70 1010.7
20260509173335 82 211 0.0 0.0 0.00 0.00 0.00 69 1010.5
20260509172832 82 183 0.0 0.0 0.00 0.00 0.00 70 1010.7
20260509172329 82 204 0.0 0.0 0.00 0.00 0.00 70 1010.6
20260509171825 82 188 0.0 0.0 0.00 0.00 0.00 72 1010.6
20260509171320 82 215 0.0 0.0 0.00 0.00 0.00 70 1010.7
20260509170817 82 192 0.0 0.0 0.00 0.00 0.00 70 1010.8
20260509170313 82 129 0.9 1.7 0.00 0.00 0.00 71 1010.9
20260509165813 81 179 0.0 0.0 0.00 0.00 0.00 72 1010.6
20260509165307 81 191 0.0 0.0 0.00 0.00 0.00 72 1010.8
20260509164803 81 170 0.0 0.0 0.00 0.00 0.00 71 1010.9
20260509164259 81 185 0.0 0.0 0.00 0.00 0.00 71 1011.1
20260509163756 81 183 0.0 0.0 0.00 0.00 0.00 73 1011.0
20260509163252 81 176 0.0 0.0 0.00 0.00 0.00 73 1010.8
20260509162751 81 186 0.0 0.0 0.00 0.00 0.00 76 1010.8
20260509162245 80 196 0.9 0.9 0.00 0.00 0.00 74 1010.8
20260509161742 80 184 0.0 0.9 0.00 0.00 0.00 72 1010.8
20260509161237 80 183 0.0 0.0 0.00 0.00 0.00 73 1010.9
20260509160732 80 183 0.0 0.0 0.00 0.00 0.00 75 1010.8
20260509160229 80 189 0.0 0.0 0.00 0.00 0.00 74 1010.9
20260509155724 80 189 0.0 0.0 0.00 0.00 0.00 72 1010.9
20260509155221 79 169 0.0 0.9 0.00 0.00 0.00 73 1010.8
20260509154718 80 185 0.9 0.9 0.00 0.00 0.00 75 1010.7
20260509154214 79 164 0.0 0.0 0.00 0.00 0.00 75 1010.7
20260509153711 79 141 0.9 0.9 0.00 0.00 0.00 74 1010.7
20260509153208 78 168 0.0 0.0 0.00 0.00 0.00 75 1010.7
20260509152704 78 169 0.0 0.0 0.00 0.00 0.00 77 1010.5
20260509152200 78 156 0.0 0.9 0.00 0.00 0.00 78 1010.6
20260509151657 77 169 0.0 0.0 0.00 0.00 0.00 77 1010.6
20260509151154 77 176 0.0 0.0 0.00 0.00 0.00 79 1010.5
20260509150652 77 186 0.0 0.0 0.00 0.00 0.00 78 1010.6
20260509150150 77 192 0.0 0.0 0.00 0.00 0.00 80 1010.6
20260509145646 76 175 0.0 0.0 0.00 0.00 0.00 80 1010.8
20260509145141 76 193 0.0 0.0 0.00 0.00 0.00 82 1010.8
20260509144638 76 183 0.0 0.0 0.00 0.00 0.00 81 1010.9
20260509144136 76 188 0.0 0.0 0.00 0.00 0.00 82 1010.9
20260509143633 75 82 0.0 0.0 0.00 0.00 0.00 84 1010.8
20260509143130 75 175 0.0 0.0 0.00 0.00 0.00 83 1010.8
20260509142625 75 172 0.0 0.0 0.00 0.00 0.00 83 1010.9
20260509142122 75 184 0.0 0.0 0.00 0.00 0.00 84 1010.6
20260509141618 74 189 0.0 0.0 0.00 0.00 0.00 85 1010.7
20260509141115 74 199 0.0 0.0 0.00 0.00 0.00 86 1010.6
20260509140612 73 187 0.0 0.0 0.00 0.00 0.00 87 1010.7
20260509140110 73 168 0.0 0.0 0.00 0.00 0.00 87 1010.6
20260509135607 73 185 0.0 0.0 0.00 0.00 0.00 89 1010.6
20260509135105 73 183 0.0 0.0 0.00 0.00 0.00 90 1010.9
20260509134601 72 178 0.0 0.0 0.00 0.00 0.00 90 1010.5
20260509134059 71 165 0.0 0.0 0.00 0.00 0.00 90 1010.4
20260509133555 71 184 0.0 0.0 0.00 0.00 0.00 91 1010.4
20260509133053 71 161 0.0 0.0 0.00 0.00 0.00 91 1010.5
20260509132551 70 179 0.0 0.0 0.00 0.00 0.00 92 1010.5
20260509132049 70 183 0.0 0.0 0.00 0.00 0.00 93 1010.3
20260509131545 69 184 0.0 0.0 0.00 0.00 0.00 94 1010.4
20260509131042 69 181 0.0 0.0 0.00 0.00 0.00 95 1010.4
20260509130537 69 178 0.0 0.0 0.00 0.00 0.00 95 1010.3
20260509130035 69 177 0.0 0.0 0.00 0.00 0.00 96 1010.0
20260509125531 69 169 0.0 0.0 0.00 0.00 0.00 96 1010.3
20260509125027 69 181 0.0 0.0 0.00 0.00 0.00 96 1010.5
20260509124519 68 177 0.0 0.0 0.00 0.00 0.00 97 1010.3
20260509124016 68 174 0.0 0.0 0.00 0.00 0.00 97 1010.4
20260509123514 68 176 0.0 0.0 0.00 0.00 0.00 97 1010.3
20260509123009 68 177 0.0 0.0 0.00 0.00 0.00 97 1010.0
20260509122506 68 177 0.0 0.0 0.00 0.00 0.00 97 1010.4
20260509122003 68 177 0.0 0.0 0.00 0.00 0.00 97 1010.4
20260509121459 68 177 0.0 0.0 0.00 0.00 0.00 97 1010.4
20260509120958 68 177 0.0 0.0 0.00 0.00 0.00 97 1010.3
20260509120455 68 177 0.0 0.0 0.00 0.00 0.00 97 1010.1
20260509115953 68 177 0.0 0.0 0.00 0.00 0.00 96 1010.4
20260509115450 68 178 0.0 0.0 0.00 0.00 0.00 96 1009.9
20260509114948 68 178 0.0 0.0 0.00 0.00 0.00 96 1009.8
20260509114446 68 178 0.0 0.0 0.00 0.00 0.00 96 1009.7
20260509113945 68 178 0.0 0.0 0.00 0.00 0.00 96 1009.5
20260509113442 68 178 0.0 0.0 0.00 0.00 0.00 96 1009.7
20260509112939 68 174 0.0 0.0 0.00 0.00 0.00 96 1009.7
20260509112437 68 174 0.0 0.0 0.00 0.00 0.00 96 1009.7
20260509111933 68 173 0.0 0.0 0.00 0.00 0.00 96 1009.3
20260509111431 69 173 0.0 0.0 0.00 0.00 0.00 96 1009.4
20260509110928 69 173 0.0 0.0 0.00 0.00 0.00 96 1009.3
20260509110424 69 174 0.0 0.0 0.00 0.00 0.00 96 1009.2
20260509105922 69 175 0.0 0.0 0.00 0.00 0.00 96 1009.3
20260509105420 69 175 0.0 0.0 0.00 0.00 0.00 96 1009.4
20260509104917 69 175 0.0 0.0 0.00 0.00 0.00 95 1009.2
20260509104413 69 175 0.0 0.0 0.00 0.00 0.00 95 1009.5
20260509103911 70 175 0.0 0.0 0.00 0.00 0.00 95 1009.4
20260509103408 69 175 0.0 0.0 0.00 0.00 0.00 95 1009.2
20260509102906 70 175 0.0 0.0 0.00 0.00 0.00 95 1009.3
20260509102403 70 175 0.0 0.0 0.00 0.00 0.00 95 1009.3
20260509101859 70 175 0.0 0.0 0.00 0.00 0.00 95 1009.3
20260509101355 70 175 0.0 0.0 0.00 0.00 0.00 95 1009.2
20260509100853 70 175 0.0 0.0 0.00 0.00 0.00 94 1009.1
20260509100350 70 174 0.0 0.0 0.00 0.00 0.00 94 1009.1
20260509095847 70 174 0.0 0.0 0.00 0.00 0.00 94 1008.8
20260509095345 70 172 0.0 0.0 0.00 0.00 0.00 94 1008.8
20260509094842 69 32 0.0 0.0 0.00 0.00 0.00 94 1008.5
20260509094338 70 176 0.0 0.0 0.00 0.00 0.00 94 1008.3
20260509093836 69 173 0.0 0.0 0.00 0.00 0.00 94 1008.7
20260509093333 69 112 0.0 0.0 0.00 0.00 0.00 94 1008.3
20260509092832 69 202 0.0 0.0 0.00 0.00 0.00 94 1007.5
20260509092329 69 205 0.0 0.0 0.00 0.00 0.00 94 1007.5
20260509091826 69 204 0.0 0.0 0.00 0.00 0.00 94 1007.0
20260509091324 69 196 0.0 0.0 0.00 0.00 0.00 94 1006.8
20260509090820 69 210 0.0 0.0 0.00 0.00 0.00 94 1006.7
20260509090318 69 175 0.0 0.0 0.00 0.00 0.00 94 1007.0
20260509085814 69 193 0.0 0.0 0.00 0.00 0.00 95 1006.8
20260509085313 69 178 0.0 0.0 0.00 0.00 0.00 95 1007.1
20260509084809 69 195 0.0 0.0 0.00 0.00 0.00 95 1007.5
20260509084306 69 192 0.0 0.0 0.00 0.00 0.00 95 1007.9
20260509083803 69 185 0.0 0.0 0.00 0.00 0.00 95 1008.0
20260509083300 69 190 0.0 0.0 0.00 0.00 0.00 95 1008.4
20260509082756 69 190 0.0 0.0 0.00 0.00 0.00 95 1008.8
20260509082253 69 182 0.0 0.0 0.00 0.00 0.00 95 1009.2
20260509081750 69 199 0.0 0.0 0.00 0.00 0.00 95 1009.5
20260509081248 68 185 0.0 0.0 0.00 0.00 0.00 94 1009.5
20260509080746 68 182 0.0 0.0 0.00 0.00 0.00 94 1009.7
20260509080243 69 182 0.0 0.0 0.00 0.00 0.00 94 1009.9
20260509075742 69 182 0.0 0.0 0.00 0.00 0.00 94 1009.8
20260509075238 69 182 0.0 0.0 0.00 0.00 0.00 94 1010.1
20260509074735 69 182 0.0 0.0 0.00 0.00 0.00 94 1010.0
20260509074233 69 182 0.0 0.0 0.00 0.00 0.00 94 1010.4
20260509073729 69 182 0.0 0.0 0.00 0.00 0.00 94 1010.5
20260509073225 69 182 0.0 0.0 0.00 0.00 0.00 94 1010.6
20260509072722 69 182 0.0 0.0 0.00 0.00 0.00 93 1010.6
20260509072219 69 182 0.0 0.0 0.00 0.00 0.00 94 1010.8
20260509071716 68 181 0.0 0.0 0.00 0.00 0.00 94 1011.0
20260509071213 68 192 0.0 0.0 0.00 0.00 0.00 94 1011.1
20260509070710 68 192 0.0 0.0 0.00 0.00 0.00 93 1011.1
20260509070206 68 192 0.0 0.0 0.00 0.00 0.00 93 1010.8
20260509065702 68 190 0.0 0.0 0.00 0.00 0.00 93 1010.4
20260509065158 68 185 0.0 0.0 0.00 0.00 0.00 92 1010.2
20260509064655 69 185 0.0 0.0 0.00 0.00 0.00 92 1010.2
20260509064153 69 185 0.0 0.0 0.00 0.00 0.00 92 1010.3
20260509063650 69 185 0.0 0.0 0.00 0.00 0.00 92 1010.4
20260509063146 69 185 0.0 0.0 0.00 0.00 0.00 92 1010.7
20260509062644 69 185 0.0 0.0 0.00 0.00 0.00 91 1010.6
20260509062141 69 186 0.0 0.0 0.00 0.00 0.00 91 1010.6
20260509061637 69 186 0.0 0.0 0.00 0.00 0.00 91 1010.6
20260509061135 69 186 0.0 0.0 0.00 0.00 0.00 91 1010.8
20260509060632 70 171 0.0 0.0 0.00 0.00 0.00 91 1010.8
20260509060128 70 171 0.0 0.0 0.00 0.00 0.00 90 1011.0
20260509055624 70 171 0.0 0.0 0.00 0.00 0.00 90 1011.1
20260509055120 70 171 0.0 0.0 0.00 0.00 0.00 90 1011.1
20260509054617 70 170 0.0 0.0 0.00 0.00 0.00 90 1011.3
20260509054115 70 170 0.0 0.0 0.00 0.00 0.00 90 1011.6
20260509053613 70 170 0.0 0.0 0.00 0.00 0.00 89 1011.8
20260509053110 70 170 0.0 0.0 0.00 0.00 0.00 89 1011.5
20260509052608 71 180 0.0 0.0 0.00 0.00 0.00 89 1011.1
20260509052105 71 180 0.0 0.0 0.00 0.00 0.00 88 1010.6
20260509051603 71 180 0.0 0.0 0.00 0.00 0.00 88 1010.3
20260509051100 71 169 0.0 0.0 0.00 0.00 0.00 87 1010.4
20260509050556 71 191 0.0 0.0 0.00 0.00 0.00 87 1010.2
20260509050053 72 174 0.0 0.0 0.00 0.00 0.00 87 1010.3
20260509045551 72 172 0.0 0.0 0.00 0.00 0.00 87 1010.5
20260509045047 72 172 0.0 0.0 0.00 0.00 0.00 86 1010.6
20260509044545 71 193 0.0 0.0 0.00 0.00 0.00 87 1010.2
20260509044042 71 191 0.0 0.0 0.00 0.00 0.00 87 1010.2
20260509043538 71 195 0.0 0.0 0.00 0.00 0.00 87 1010.1
20260509043034 71 201 0.0 0.0 0.00 0.00 0.00 87 1010.4
20260509042530 71 177 0.0 0.0 0.00 0.00 0.00 87 1010.5
20260509042026 71 177 0.0 0.0 0.00 0.00 0.00 86 1010.5
20260509041523 72 177 0.0 0.0 0.00 0.00 0.00 86 1010.7
20260509041021 72 177 0.0 0.0 0.00 0.00 0.00 86 1011.0
20260509040519 72 177 0.0 0.0 0.00 0.00 0.00 86 1011.0
20260509040016 72 173 0.0 0.0 0.00 0.00 0.00 85 1011.0
20260509035513 72 171 0.0 0.0 0.00 0.00 0.00 85 1010.9
20260509035009 72 171 0.0 0.0 0.00 0.00 0.00 85 1010.7
20260509034507 72 169 0.0 0.0 0.00 0.00 0.00 85 1010.5
20260509033958 72 149 0.0 0.0 0.00 0.00 0.00 85 1010.1
20260509033455 72 201 0.0 0.0 0.00 0.00 0.00 85 1010.0
20260509032952 72 190 0.0 0.0 0.00 0.00 0.00 84 1010.3
20260509032449 72 190 0.0 0.0 0.00 0.00 0.00 84 1010.3
20260509031947 72 191 0.0 0.0 0.00 0.00 0.00 84 1010.2
20260509031444 72 191 0.0 0.0 0.00 0.00 0.00 84 1010.3
20260509030941 72 200 0.0 0.0 0.00 0.00 0.00 84 1010.1
20260509030439 72 189 0.0 0.0 0.00 0.00 0.00 84 1010.1
20260509025936 72 189 0.0 0.0 0.00 0.00 0.00 84 1010.0
20260509025432 71 188 0.0 0.0 0.00 0.00 0.00 84 1009.9
20260509024927 71 180 0.0 0.0 0.00 0.00 0.00 84 1009.9
20260509024423 71 192 0.0 0.0 0.00 0.00 0.00 84 1009.5
20260509023920 71 191 0.0 0.0 0.00 0.00 0.00 84 1009.4
20260509023418 71 197 0.0 0.0 0.00 0.00 0.00 83 1009.4
20260509022914 71 197 0.0 0.0 0.00 0.00 0.00 83 1009.5
20260509022411 72 198 0.0 0.0 0.00 0.00 0.00 83 1009.4
20260509021909 72 195 0.0 0.0 0.00 0.00 0.00 83 1009.5
20260509021405 72 181 0.0 0.0 0.00 0.00 0.00 83 1009.2
20260509020903 72 194 0.0 0.0 0.00 0.00 0.00 82 1009.2
20260509020401 72 194 0.0 0.0 0.00 0.00 0.00 82 1009.2
20260509015857 72 194 0.0 0.0 0.00 0.00 0.00 82 1009.1
20260509015356 72 194 0.0 0.0 0.00 0.00 0.00 82 1009.3
20260509014852 72 196 0.0 0.0 0.00 0.00 0.00 82 1009.5
20260509014349 72 197 0.0 0.0 0.00 0.00 0.00 82 1009.3
20260509013846 72 195 0.0 0.0 0.00 0.00 0.00 82 1009.3
20260509013342 72 196 0.0 0.0 0.00 0.00 0.00 81 1009.2
20260509012838 72 195 0.0 0.0 0.00 0.00 0.00 81 1009.3
20260509012335 72 195 0.0 0.0 0.00 0.00 0.00 81 1009.3
20260509011833 73 195 0.0 0.0 0.00 0.00 0.00 80 1009.2
20260509011330 73 195 0.0 0.0 0.00 0.00 0.00 80 1009.1
20260509010827 73 188 0.0 0.0 0.00 0.00 0.00 80 1009.0
20260509010324 73 191 0.0 0.0 0.00 0.00 0.00 80 1008.7
20260509005821 73 197 0.0 0.0 0.00 0.00 0.00 80 1008.4
20260509005319 73 189 0.0 0.0 0.00 0.00 0.00 80 1008.5
20260509004814 73 193 0.0 0.0 0.00 0.00 0.00 80 1008.5
20260509004310 73 187 0.0 0.0 0.00 0.00 0.00 80 1008.3
20260509003809 73 196 0.0 0.0 0.00 0.00 0.00 79 1008.7
20260509003306 73 187 0.0 0.0 0.00 0.00 0.00 79 1008.7
20260509002803 73 187 0.0 0.0 0.00 0.00 0.00 79 1008.7
20260509002300 73 192 0.0 0.0 0.00 0.00 0.00 79 1008.5
20260509001758 73 191 0.0 0.0 0.00 0.00 0.00 78 1008.8
20260509001254 73 179 0.0 0.0 0.00 0.00 0.00 78 1008.7
20260509000752 73 182 0.0 0.0 0.00 0.00 0.00 78 1008.7
20260509000249 73 194 0.0 0.0 0.00 0.00 0.00 78 1008.8
20260508235746 73 189 0.0 0.0 0.00 0.00 0.00 78 1008.7
20260508235242 73 203 0.0 0.0 0.00 0.00 0.00 77 1008.9
20260508234740 73 197 0.0 0.0 0.00 0.00 0.00 77 1009.0
20260508234235 73 195 0.0 0.0 0.00 0.00 0.00 77 1009.1
20260508233730 73 192 0.0 0.0 0.00 0.00 0.00 77 1009.0
20260508233227 73 181 0.0 0.0 0.00 0.00 0.00 77 1009.1
20260508232724 74 186 0.0 0.0 0.00 0.00 0.00 76 1009.1
20260508232221 74 185 0.0 0.0 0.00 0.00 0.00 76 1009.0
20260508231719 74 183 0.0 0.0 0.00 0.00 0.00 75 1009.0
20260508231215 74 193 0.0 0.0 0.00 0.00 0.00 75 1009.1
20260508230713 74 173 0.0 0.0 0.00 0.00 0.00 76 1008.8
20260508230208 74 178 0.0 0.9 0.00 0.00 0.00 75 1009.1
20260508225707 74 183 0.0 0.0 0.00 0.00 0.00 74 1009.2
20260508225202 74 195 0.0 0.0 0.00 0.00 0.00 74 1009.0
20260508224701 74 210 0.0 0.0 0.00 0.00 0.00 73 1009.1
20260508224158 74 193 0.0 0.0 0.00 0.00 0.00 74 1009.3
20260508223655 74 190 0.0 0.0 0.00 0.00 0.00 74 1009.1
20260508223152 74 185 0.0 0.0 0.00 0.00 0.00 74 1009.3
20260508222650 74 166 0.0 0.0 0.00 0.00 0.00 73 1009.2
20260508222147 74 199 0.0 0.0 0.00 0.00 0.00 73 1009.4
20260508221643 74 192 0.0 0.0 0.00 0.00 0.00 73 1009.2
20260508221139 74 239 0.0 0.0 0.00 0.00 0.00 74 1009.1
20260508220636 74 181 0.0 0.0 0.00 0.00 0.00 74 1009.2
20260508220132 74 200 0.0 0.0 0.00 0.00 0.00 74 1009.2
20260508215629 74 193 0.0 0.0 0.00 0.00 0.00 73 1009.3
20260508215126 74 205 0.0 0.0 0.00 0.00 0.00 72 1009.2
20260508214623 74 195 0.0 0.0 0.00 0.00 0.00 75 1009.3
20260508214120 74 203 0.0 0.0 0.00 0.00 0.00 73 1009.0
20260508213616 73 197 0.0 0.0 0.00 0.00 0.00 75 1009.1
20260508213113 73 167 0.0 0.0 0.00 0.00 0.00 77 1009.1
20260508212609 72 209 0.0 0.0 0.00 0.00 0.00 78 1008.9
20260508212106 71 199 0.0 0.0 0.00 0.00 0.00 81 1009.2
20260508211601 70 207 0.0 0.0 0.00 0.00 0.00 81 1009.4
20260508211057 70 174 0.0 0.0 0.00 0.00 0.00 85 1008.8
20260508210554 71 173 0.0 0.0 0.00 0.00 0.00 81 1010.0
20260508210051 72 242 0.0 0.0 0.00 0.00 0.00 77 1009.9
20260508205549 72 189 0.0 0.0 0.00 0.00 0.00 77 1010.2
20260508205045 72 189 0.0 0.0 0.00 0.00 0.00 76 1010.7
20260508204541 72 189 0.0 0.0 0.00 0.00 0.00 76 1010.7
20260508204037 72 189 0.0 0.0 0.00 0.00 0.00 76 1010.9
20260508203534 72 185 0.0 0.0 0.00 0.00 0.00 77 1011.1
20260508203030 72 175 0.0 0.0 0.00 0.00 0.00 75 1011.3
20260508202527 73 199 0.0 0.0 0.00 0.00 0.00 75 1011.2
20260508202024 73 194 0.0 0.0 0.00 0.00 0.00 76 1011.2
20260508201520 73 194 0.0 0.0 0.00 0.00 0.00 75 1011.2